COSMOS 1275 DEB, 42231

Orbit data source: Space-Track

COSMOS 1275 DEB, 42231 is space debris in LEO originally from a launch on Thu, 04 Jun 1981 UTC launched from the Plesetsk Missile And Space Complex (PKMTR). Debris objects in space refer to the collection of defunct objects orbiting the Earth. Examples of debris include non-operational satellites, rocket bodies, and fragments generated from explosions, collisions, or faulty payload assembly.

Loading next visibility...
Identifier
42231, 1981-053UX
Orbit
LEO
Country
Flag of CISCIS
Related business
Manufacturer
Unknown
Mission
Spacecraft
Bus & Motor
Unknown
Mass
Unknown
Launch date (UTC)
1981-06-04 (45 years ago)
Launch vehicle
Unknown
Launch site
Plesetsk Missile And Space Complex (PKMTR)
Object type
Payload
Rocket body
Debris
Shape & HBR
Unknown shape, 0.1 m
Radar Cross Section
Small (<0.1 m²)

Expand to show TLE details & history
Last TLE update: 1 week ago

TLE from 1 week ago
0 COSMOS 1275 DEB
1 42231U 81053UX  26060.98437114  .00004932  00000-0  18196-2 0  9995
2 42231  82.7594 328.3421 0031455 147.4719 212.8415 14.32076390634161
Epoch: 2026-03-01T23:37Z
TLE epoch observation values (Epoch: 2026-03-01T23:37:29.666Z)
Latitude
-0.00006°
Longitude
174.18419°
Altitude
806.728 km
Speed
7.44 km/s
True Right ascension
21h 53m 22s
True Declination
0° 00' 00"
Sunlit
Object was in daylight at epoch
Visualization orbit readout
Latitude
Unknown
Longitude
Unknown
Altitude
Unknown
Speed
Unknown
Apparent Right ascension
Unknown
Apparent Declination
Unknown
Sunlit
N/A
Visualization observer readout
Local Sidereal Time
15:45:45
Azimuth
Unknown
Elevation
Unknown
Doppler factor
Unknown
Orbital elements
Apogee altitude
804.398 km
Perigee altitude
759.354 km
Semi-major axis
7,160.013 km
Eccentricity
0.00315
Inclination
82.7594°
RAAN
328.3421°
Arg. of periapsis
147.4719°
True anomaly
212.64667°
Mean anomaly
212.8415°
Eccentric anomaly
212.74402°
Mean motion
3.58239 °/min
Orbital period
100.49 mins
BSTAR
0.0018196
Loading maneuver chart data...
Computing Atmospheric mass density...
Loading historical data...
Loading historical data...
Loading historical data...
Loading historical data...
Loading historical data...
Loading historical data...
Loading historical data...

Documentation

Showing up to 5 results
|